This demonstration page uses our WeatherBlox Daily Observations layout. Learn more.

Left ArrowRight Arrow

34.74481, -87.66753

Hourly Observations for December 1, 2019

Temp ( °F °C ) Dew Point ( °F °C ) Humidity (%) Winds ( mph kmh ) Pressure ( in mb ) Visibility ( mi km ) Precip ( " mm )
12:18 am 00:18 Cloudy 66 18.9 63 17.2 90 90 W 10 17 29.62 1003 10 16 0.00 0.00
12:53 am 00:53 Cloudy 65 18.3 62 16.7 90 90 W 8 13 29.62 1003 10 16 0.00 0.00
1:01 am 01:01 Cloudy 65 18.3 62 16.7 90 90 WSW 18 30 29.65 1004 10 16 0.00 0.00
1:15 am 01:15 Mostly Cloudy 65 18.3 59 15 81 81 W 18 30 29.65 1004 10 16 0.00 0.00
1:25 am 01:25 Mostly Cloudy 64 17.8 57 13.9 78 78 W 17 28 29.65 1004 10 16 0.00 0.00
1:53 am 01:53 Mostly Clear 63 17.2 56 13.3 78 78 W 15 24 29.65 1004 10 16 0.00 0.00
2:53 am 02:53 Clear 58 14.4 48 8.9 70 70 WSW 16 26 29.65 1004 10 16 0.00 0.00
3:53 am 03:53 Clear 55 12.8 44 6.7 67 67 WSW 12 19 29.67 1005 10 16 0.00 0.00
4:53 am 04:53 Clear 54 12.2 32 0 43 43 WSW 13 20 29.67 1005 10 16 0.00 0.00
5:53 am 05:53 Clear 53 11.7 41 5 64 64 SW 13 20 29.68 1005 10 16 0.00 0.00
6:53 am 06:53 Sunny 53 11.7 40 4.4 61 61 WSW 15 24 29.69 1006 10 16 0.00 0.00
7:53 am 07:53 Sunny 54 12.2 41 5 62 62 WSW 14 22 29.69 1005 10 16 0.00 0.00
8:53 am 08:53 Sunny 55 12.8 35 1.7 47 47 W 26 43 29.71 1006 10 16 0.00 0.00
9:53 am 09:53 Sunny 56 13.3 35 1.7 46 46 W 23 37 29.72 1007 10 16 0.00 0.00
10:53 am 10:53 Sunny 57 13.9 36 2.2 45 45 W 16 26 29.71 1006 10 16 0.00 0.00
11:53 am 11:53 Sunny 57 13.9 32 0 39 39 WNW 21 33 29.71 1006 10 16 0.00 0.00
12:53 pm 12:53 Sunny 55 12.8 31 -0.6 40 40 W 16 26 29.71 1006 10 16 0.00 0.00
1:53 pm 13:53 Sunny 56 13.3 32 0 40 40 WNW 20 31 29.71 1006 10 16 0.00 0.00
2:53 pm 14:53 Sunny 54 12.2 31 -0.6 42 42 W 20 31 29.73 1007 10 16 0.00 0.00
3:53 pm 15:53 Mostly Cloudy 51 10.6 31 -0.6 46 46 WNW 23 37 29.77 1008 10 16 0.00 0.00
4:53 pm 16:53 Cloudy 50 10 32 0 50 50 WNW 15 24 29.80 1009 10 16 0.00 0.00
5:53 pm 17:53 Cloudy 49 9.4 32 0 52 52 WNW 16 26 29.84 1011 10 16 0.00 0.00
6:53 pm 18:53 Cloudy 47 8.3 31 -0.6 54 54 WNW 12 19 29.85 1011 10 16 0.00 0.00
7:53 pm 19:53 Cloudy 45 7.2 31 -0.6 58 58 NW 13 20 29.88 1012 10 16 0.00 0.00
8:53 pm 20:53 Partly Cloudy 44 6.7 28 -2.2 53 53 WNW 15 24 29.89 1012 10 16 0.00 0.00
9:53 pm 21:53 Partly Cloudy 43 6.1 28 -2.2 56 56 WNW 14 22 29.91 1013 10 16 0.00 0.00
10:53 pm 22:53 Mostly Cloudy 42 5.6 28 -2.2 58 58 WNW 14 22 29.92 1013 10 16 0.00 0.00
11:53 pm 23:53 Cloudy 42 5.6 28 -2.2 58 58 NW 14 22 29.91 1013 10 16 0.00 0.00

Powered by AerisWeather